| time (UTC) | temp F | wind direction | speed MPH | gust MPH | rain 1hr in | rain 24hr in | rain mn in | humidity % | barometer mb |
| 20260903125036 | 60 | 160 | 2.0 | 8.0 | 0.00 | 0.00 | 0.00 | 78 | 1016.2 |
| 20260903124535 | 60 | 144 | 3.0 | 8.0 | 0.00 | 0.00 | 0.00 | 78 | 1016.2 |
| 20260903124036 | 60 | 148 | 3.0 | 9.0 | 0.00 | 0.00 | 0.00 | 78 | 1016.2 |
| 20260903123533 | 60 | 142 | 5.0 | 11.0 | 0.00 | 0.00 | 0.00 | 78 | 1016.3 |
| 20260903123033 | 60 | 205 | 5.0 | 11.0 | 0.00 | 0.00 | 0.00 | 78 | 1016.2 |
| 20260903122532 | 60 | 171 | 6.0 | 10.0 | 0.00 | 0.00 | 0.00 | 78 | 1016.2 |
| 20260903122030 | 60 | 171 | 6.0 | 10.0 | 0.00 | 0.00 | 0.00 | 78 | 1016.1 |
| 20260903121531 | 60 | 164 | 6.0 | 9.0 | 0.00 | 0.00 | 0.00 | 78 | 1016.2 |
| 20260903121029 | 60 | 165 | 6.0 | 11.0 | 0.00 | 0.00 | 0.00 | 78 | 1016.3 |
| 20260903120528 | 60 | 176 | 5.0 | 11.0 | 0.00 | 0.00 | 0.00 | 77 | 1016.3 |
| 20260903120032 | 60 | 170 | 7.0 | 11.0 | 0.00 | 0.00 | 0.00 | 77 | 1016.5 |
| 20260903115529 | 60 | 153 | 7.0 | 10.0 | 0.00 | 0.00 | 0.00 | 76 | 1016.5 |
| 20260903115026 | 60 | 160 | 4.0 | 8.0 | 0.00 | 0.00 | 0.00 | 76 | 1016.5 |
| 20260903114528 | 60 | 186 | 5.0 | 8.0 | 0.00 | 0.00 | 0.00 | 76 | 1016.6 |
| 20260903114029 | 60 | 188 | 3.0 | 9.0 | 0.00 | 0.00 | 0.00 | 76 | 1016.6 |
| 20260903113525 | 60 | 139 | 5.0 | 7.0 | 0.00 | 0.00 | 0.00 | 76 | 1016.7 |
| 20260903113029 | 61 | 178 | 3.0 | 9.0 | 0.00 | 0.00 | 0.00 | 75 | 1016.7 |
| 20260903112524 | 61 | 181 | 4.0 | 8.0 | 0.00 | 0.00 | 0.00 | 75 | 1016.7 |
| 20260903112024 | 61 | 159 | 4.0 | 9.0 | 0.00 | 0.00 | 0.00 | 75 | 1016.6 |
| 20260903111531 | 61 | 178 | 6.0 | 9.0 | 0.00 | 0.00 | 0.00 | 74 | 1016.6 |
| 20260903111025 | 61 | 183 | 5.0 | 11.0 | 0.00 | 0.00 | 0.00 | 74 | 1016.6 |
| 20260903110523 | 61 | 188 | 6.0 | 11.0 | 0.00 | 0.00 | 0.00 | 74 | 1016.7 |
| 20260903110023 | 61 | 163 | 6.0 | 11.0 | 0.00 | 0.00 | 0.00 | 74 | 1016.6 |
| 20260903105526 | 61 | 157 | 6.0 | 10.0 | 0.00 | 0.00 | 0.00 | 74 | 1016.6 |
| 20260903105021 | 61 | 190 | 6.0 | 10.0 | 0.00 | 0.00 | 0.00 | 75 | 1016.6 |
| 20260903104521 | 61 | 198 | 6.0 | 8.0 | 0.00 | 0.00 | 0.00 | 74 | 1016.7 |
| 20260903104020 | 61 | 189 | 4.0 | 8.0 | 0.00 | 0.00 | 0.00 | 73 | 1016.6 |
| 20260903103520 | 61 | 184 | 5.0 | 8.0 | 0.00 | 0.00 | 0.00 | 72 | 1016.6 |
| 20260903103019 | 61 | 186 | 4.0 | 10.0 | 0.00 | 0.00 | 0.00 | 72 | 1016.5 |
| 20260903102519 | 62 | 178 | 6.0 | 10.0 | 0.00 | 0.00 | 0.00 | 72 | 1016.5 |
| 20260903102018 | 61 | 187 | 5.0 | 10.0 | 0.00 | 0.00 | 0.00 | 72 | 1016.5 |
| 20260903101525 | 62 | 169 | 4.0 | 8.0 | 0.00 | 0.00 | 0.00 | 72 | 1016.5 |
| 20260903101017 | 62 | 200 | 4.0 | 8.0 | 0.00 | 0.00 | 0.00 | 72 | 1016.6 |
| 20260903100516 | 62 | 182 | 4.0 | 8.0 | 0.00 | 0.00 | 0.00 | 72 | 1016.6 |
| 20260903100016 | 62 | 175 | 4.0 | 8.0 | 0.00 | 0.00 | 0.00 | 72 | 1016.7 |
| 20260903095515 | 61 | 187 | 4.0 | 7.0 | 0.00 | 0.00 | 0.00 | 73 | 1016.8 |
| 20260903095115 | 61 | 186 | 3.0 | 6.0 | 0.00 | 0.00 | 0.00 | 73 | 1016.8 |
| 20260903094514 | 62 | 195 | 2.0 | 5.0 | 0.00 | 0.00 | 0.00 | 73 | 1016.8 |
| 20260903094013 | 62 | 196 | 2.0 | 5.0 | 0.00 | 0.00 | 0.00 | 72 | 1016.8 |
| 20260903093512 | 62 | 184 | 1.0 | 6.0 | 0.00 | 0.00 | 0.00 | 71 | 1016.9 |
| 20260903093012 | 62 | 184 | 4.0 | 6.0 | 0.00 | 0.00 | 0.00 | 71 | 1017.0 |
| 20260903092511 | 62 | 187 | 2.0 | 7.0 | 0.00 | 0.00 | 0.00 | 71 | 1017.0 |
| 20260903092013 | 62 | 172 | 3.0 | 9.0 | 0.00 | 0.00 | 0.00 | 70 | 1017.0 |
| 20260903091510 | 62 | 169 | 3.0 | 9.0 | 0.00 | 0.00 | 0.00 | 70 | 1017.0 |
| 20260903091012 | 62 | 171 | 5.0 | 9.0 | 0.00 | 0.00 | 0.00 | 70 | 1017.1 |
| 20260903090509 | 63 | 171 | 4.0 | 7.0 | 0.00 | 0.00 | 0.00 | 69 | 1017.0 |
| 20260903090008 | 63 | 163 | 4.0 | 7.0 | 0.00 | 0.00 | 0.00 | 69 | 1017.0 |
| 20260903085507 | 63 | 166 | 5.0 | 9.0 | 0.00 | 0.00 | 0.00 | 68 | 1017.0 |
| 20260903085007 | 63 | 162 | 6.0 | 9.0 | 0.00 | 0.00 | 0.00 | 68 | 1017.1 |
| 20260903084511 | 63 | 167 | 5.0 | 9.0 | 0.00 | 0.00 | 0.00 | 68 | 1017.0 |
| 20260903084005 | 63 | 160 | 5.0 | 8.0 | 0.00 | 0.00 | 0.00 | 68 | 1017.0 |
| 20260903083504 | 63 | 155 | 2.0 | 7.0 | 0.00 | 0.00 | 0.00 | 68 | 1017.1 |
| 20260903083003 | 63 | 153 | 5.0 | 7.0 | 0.00 | 0.00 | 0.00 | 68 | 1017.0 |
| 20260903082503 | 64 | 154 | 4.0 | 7.0 | 0.00 | 0.00 | 0.00 | 68 | 1017.0 |
| 20260903082002 | 64 | 161 | 5.0 | 7.0 | 0.00 | 0.00 | 0.00 | 67 | 1017.0 |
| 20260903081502 | 64 | 162 | 4.0 | 6.0 | 0.00 | 0.00 | 0.00 | 68 | 1017.0 |
| 20260903081002 | 64 | 155 | 4.0 | 6.0 | 0.00 | 0.00 | 0.00 | 68 | 1017.1 |
| 20260903080501 | 64 | 157 | 3.0 | 7.0 | 0.00 | 0.00 | 0.00 | 67 | 1017.0 |
| 20260903080001 | 64 | 157 | 2.0 | 6.0 | 0.00 | 0.00 | 0.00 | 67 | 1017.0 |
| 20260903075601 | 64 | 360 | 2.0 | 6.0 | 0.00 | 0.00 | 0.00 | 67 | 1017.0 |
| 20260903075059 | 64 | 360 | 2.0 | 7.0 | 0.00 | 0.00 | 0.00 | 67 | 1017.0 |
| 20260903074559 | 64 | 360 | 4.0 | 7.0 | 0.00 | 0.00 | 0.00 | 67 | 1017.0 |
| 20260903074100 | 64 | 152 | 2.0 | 7.0 | 0.00 | 0.00 | 0.00 | 67 | 1017.1 |
| 20260903073559 | 64 | 154 | 2.0 | 6.0 | 0.00 | 0.00 | 0.00 | 67 | 1017.0 |
| 20260903073058 | 64 | 162 | 2.0 | 6.0 | 0.00 | 0.00 | 0.00 | 67 | 1016.9 |
| 20260903072557 | 64 | 150 | 3.0 | 7.0 | 0.00 | 0.00 | 0.00 | 67 | 1016.9 |
| 20260903072057 | 64 | 148 | 5.0 | 8.0 | 0.00 | 0.00 | 0.00 | 67 | 1017.0 |
| 20260903071557 | 64 | 155 | 5.0 | 8.0 | 0.00 | 0.00 | 0.00 | 67 | 1017.1 |
| 20260903071055 | 64 | 146 | 5.0 | 8.0 | 0.00 | 0.00 | 0.00 | 67 | 1017.0 |
| 20260903070600 | 65 | 157 | 5.0 | 8.0 | 0.00 | 0.00 | 0.00 | 66 | 1017.1 |
| 20260903070054 | 65 | 155 | 6.0 | 8.0 | 0.00 | 0.00 | 0.00 | 65 | 1017.1 |
| 20260903065558 | 65 | 153 | 4.0 | 6.0 | 0.00 | 0.00 | 0.00 | 65 | 1017.1 |
| 20260903065052 | 65 | 153 | 4.0 | 6.0 | 0.00 | 0.00 | 0.00 | 65 | 1017.0 |
| 20260903064554 | 65 | 150 | 3.0 | 7.0 | 0.00 | 0.00 | 0.00 | 65 | 1017.0 |
| 20260903064053 | 65 | 152 | 4.0 | 8.0 | 0.00 | 0.00 | 0.00 | 65 | 1016.9 |
| 20260903063553 | 65 | 164 | 3.0 | 9.0 | 0.00 | 0.00 | 0.00 | 65 | 1016.9 |
| 20260903063053 | 65 | 156 | 4.0 | 9.0 | 0.00 | 0.00 | 0.00 | 65 | 1017.0 |
| 20260903062553 | 65 | 135 | 5.0 | 8.0 | 0.00 | 0.00 | 0.00 | 65 | 1017.0 |
| 20260903062052 | 66 | 160 | 2.0 | 7.0 | 0.00 | 0.00 | 0.00 | 64 | 1017.1 |
| 20260903061555 | 66 | 163 | 2.0 | 7.0 | 0.00 | 0.00 | 0.00 | 64 | 1017.1 |
| 20260903061051 | 66 | 143 | 4.0 | 9.0 | 0.00 | 0.00 | 0.00 | 64 | 1017.1 |
| 20260903060553 | 66 | 160 | 2.0 | 7.0 | 0.00 | 0.00 | 0.00 | 64 | 1017.0 |
| 20260903060051 | 66 | 159 | 0.0 | 6.0 | 0.00 | 0.00 | 0.00 | 64 | 1017.1 |
| 20260903055551 | 66 | 129 | 1.0 | 6.0 | 0.00 | 0.00 | 0.00 | 63 | 1017.1 |
| 20260903055050 | 66 | 146 | 0.0 | 2.0 | 0.00 | 0.00 | 0.00 | 63 | 1017.1 |
| 20260903054556 | 66 | 146 | 0.0 | 2.0 | 0.00 | 0.00 | 0.00 | 63 | 1017.1 |
| 20260903054050 | 66 | 146 | 0.0 | 5.0 | 0.00 | 0.00 | 0.00 | 63 | 1017.1 |
| 20260903053551 | 66 | 147 | 1.0 | 5.0 | 0.00 | 0.00 | 0.00 | 63 | 1017.1 |
| 20260903053050 | 67 | 145 | 1.0 | 6.0 | 0.00 | 0.00 | 0.00 | 62 | 1017.2 |
| 20260903052550 | 67 | 147 | 1.0 | 6.0 | 0.00 | 0.00 | 0.00 | 63 | 1017.2 |
| 20260903052050 | 67 | 144 | 1.0 | 3.0 | 0.00 | 0.00 | 0.00 | 63 | 1017.3 |
| 20260903051549 | 67 | 142 | 0.0 | 4.0 | 0.00 | 0.00 | 0.00 | 63 | 1017.3 |
| 20260903051052 | 67 | 167 | 0.0 | 7.0 | 0.00 | 0.00 | 0.00 | 63 | 1017.3 |
| 20260903050549 | 67 | 138 | 1.0 | 7.0 | 0.00 | 0.00 | 0.00 | 63 | 1017.3 |
| 20260903050049 | 67 | 155 | 2.0 | 6.0 | 0.00 | 0.00 | 0.00 | 63 | 1017.2 |
| 20260903045549 | 67 | 157 | 0.0 | 6.0 | 0.00 | 0.00 | 0.00 | 63 | 1017.3 |
| 20260903045048 | 68 | 156 | 3.0 | 6.0 | 0.00 | 0.00 | 0.00 | 63 | 1017.3 |
| 20260903044550 | 68 | 159 | 4.0 | 6.0 | 0.00 | 0.00 | 0.00 | 63 | 1017.3 |
| 20260903044048 | 68 | 155 | 3.0 | 6.0 | 0.00 | 0.00 | 0.00 | 63 | 1017.1 |
| 20260903043547 | 68 | 167 | 1.0 | 5.0 | 0.00 | 0.00 | 0.00 | 63 | 1017.1 |
| 20260903043047 | 68 | 148 | 1.0 | 5.0 | 0.00 | 0.00 | 0.00 | 63 | 1017.1 |
| 20260903042550 | 68 | 152 | 1.0 | 4.0 | 0.00 | 0.00 | 0.00 | 63 | 1017.1 |
| 20260903042048 | 68 | 156 | 1.0 | 4.0 | 0.00 | 0.00 | 0.00 | 63 | 1017.1 |
| 20260903041549 | 68 | 155 | 1.0 | 5.0 | 0.00 | 0.00 | 0.00 | 63 | 1017.0 |
| 20260903041047 | 68 | 179 | 1.0 | 2.0 | 0.00 | 0.00 | 0.00 | 63 | 1017.0 |
| 20260903040547 | 68 | 183 | 0.0 | 2.0 | 0.00 | 0.00 | 0.00 | 63 | 1017.0 |
| 20260903040147 | 68 | 183 | 0.0 | 2.0 | 0.00 | 0.00 | 0.00 | 62 | 1016.9 |
| 20260903035546 | 68 | 183 | 0.0 | 2.0 | 0.00 | 0.00 | 0.00 | 62 | 1016.8 |
| 20260903035046 | 68 | 183 | 0.0 | 4.0 | 0.00 | 0.00 | 0.00 | 62 | 1016.8 |
| 20260903034546 | 68 | 184 | 2.0 | 3.0 | 0.00 | 0.00 | 0.00 | 62 | 1016.7 |
| 20260903034046 | 69 | 214 | 0.0 | 2.0 | 0.00 | 0.00 | 0.00 | 62 | 1016.6 |
| 20260903033545 | 69 | 214 | 0.0 | 4.0 | 0.00 | 0.00 | 0.00 | 61 | 1016.5 |
| 20260903033045 | 69 | 214 | 1.0 | 3.0 | 0.00 | 0.00 | 0.00 | 61 | 1016.5 |
| 20260903032544 | 69 | 214 | 1.0 | 5.0 | 0.00 | 0.00 | 0.00 | 61 | 1016.5 |
| 20260903032045 | 69 | 213 | 2.0 | 5.0 | 0.00 | 0.00 | 0.00 | 61 | 1016.5 |
| 20260903031548 | 70 | 205 | 3.0 | 6.0 | 0.00 | 0.00 | 0.00 | 60 | 1016.4 |
| 20260903031046 | 70 | 196 | 4.0 | 6.0 | 0.00 | 0.00 | 0.00 | 60 | 1016.4 |
| 20260903030543 | 70 | 196 | 0.0 | 4.0 | 0.00 | 0.00 | 0.00 | 60 | 1016.4 |
| 20260903030043 | 70 | 196 | 1.0 | 4.0 | 0.00 | 0.00 | 0.00 | 59 | 1016.4 |
| 20260903025542 | 70 | 196 | 1.0 | 5.0 | 0.00 | 0.00 | 0.00 | 59 | 1016.3 |
| 20260903025042 | 71 | 196 | 1.0 | 5.0 | 0.00 | 0.00 | 0.00 | 59 | 1016.3 |
| 20260903024542 | 71 | 196 | 1.0 | 3.0 | 0.00 | 0.00 | 0.00 | 59 | 1016.3 |
| 20260903024040 | 71 | 360 | 1.0 | 5.0 | 0.00 | 0.00 | 0.00 | 58 | 1016.4 |
| 20260903023544 | 71 | 196 | 2.0 | 5.0 | 0.00 | 0.00 | 0.00 | 58 | 1016.4 |
| 20260903023040 | 71 | 360 | 3.0 | 7.0 | 0.00 | 0.00 | 0.00 | 58 | 1016.5 |
| 20260903022539 | 71 | 360 | 4.0 | 6.0 | 0.00 | 0.00 | 0.00 | 57 | 1016.4 |
| 20260903022040 | 72 | 360 | 4.0 | 6.0 | 0.00 | 0.00 | 0.00 | 57 | 1016.5 |
| 20260903021539 | 72 | 244 | 5.0 | 8.0 | 0.00 | 0.00 | 0.00 | 56 | 1016.6 |
| 20260903021039 | 72 | 234 | 6.0 | 11.0 | 0.00 | 0.00 | 0.00 | 56 | 1016.5 |
| 20260903020538 | 72 | 205 | 7.0 | 11.0 | 0.00 | 0.00 | 0.00 | 56 | 1016.6 |
| 20260903020058 | 72 | 236 | 7.0 | 9.0 | 0.00 | 0.00 | 0.00 | 56 | 1016.5 |
| 20260903015538 | 73 | 202 | 5.0 | 13.0 | 0.00 | 0.00 | 0.00 | 55 | 1016.6 |
| 20260903015037 | 73 | 219 | 7.0 | 13.0 | 0.00 | 0.00 | 0.00 | 55 | 1016.6 |
| 20260903014538 | 73 | 202 | 8.0 | 14.0 | 0.00 | 0.00 | 0.00 | 54 | 1016.5 |
| 20260903014040 | 73 | 217 | 8.0 | 14.0 | 0.00 | 0.00 | 0.00 | 54 | 1016.6 |
| 20260903013537 | 74 | 209 | 8.0 | 12.0 | 0.00 | 0.00 | 0.00 | 53 | 1016.6 |
| 20260903013035 | 74 | 235 | 6.0 | 12.0 | 0.00 | 0.00 | 0.00 | 54 | 1016.6 |
| 20260903012536 | 74 | 237 | 5.0 | 13.0 | 0.00 | 0.00 | 0.00 | 54 | 1016.7 |
| 20260903012035 | 74 | 225 | 9.0 | 13.0 | 0.00 | 0.00 | 0.00 | 54 | 1016.7 |
| 20260903011538 | 74 | 210 | 7.0 | 11.0 | 0.00 | 0.00 | 0.00 | 55 | 1016.6 |
| 20260903011033 | 73 | 218 | 5.0 | 10.0 | 0.00 | 0.00 | 0.00 | 55 | 1016.6 |
| 20260903010533 | 73 | 238 | 7.0 | 10.0 | 0.00 | 0.00 | 0.00 | 55 | 1016.7 |
| 20260903010034 | 73 | 215 | 8.0 | 12.0 | 0.00 | 0.00 | 0.00 | 55 | 1016.8 |
| 20260903005535 | 74 | 209 | 6.0 | 11.0 | 0.00 | 0.00 | 0.00 | 54 | 1016.7 |
| 20260903005034 | 74 | 205 | 7.0 | 13.0 | 0.00 | 0.00 | 0.00 | 55 | 1016.7 |
| 20260903004531 | 74 | 212 | 9.0 | 13.0 | 0.00 | 0.00 | 0.00 | 55 | 1016.8 |
| 20260903004033 | 74 | 209 | 7.0 | 14.0 | 0.00 | 0.00 | 0.00 | 54 | 1016.8 |
| 20260903003531 | 74 | 187 | 9.0 | 19.0 | 0.00 | 0.00 | 0.00 | 55 | 1016.9 |
| 20260903003030 | 74 | 227 | 10.0 | 19.0 | 0.00 | 0.00 | 0.00 | 54 | 1016.8 |
| 20260903002530 | 74 | 241 | 6.0 | 11.0 | 0.00 | 0.00 | 0.00 | 55 | 1016.9 |
| 20260903002030 | 74 | 240 | 6.0 | 14.0 | 0.00 | 0.00 | 0.00 | 56 | 1016.9 |
| 20260903001534 | 74 | 193 | 8.0 | 16.0 | 0.00 | 0.00 | 0.00 | 56 | 1016.9 |
| 20260903001029 | 74 | 239 | 10.0 | 16.0 | 0.00 | 0.00 | 0.00 | 55 | 1016.9 |
| 20260903000529 | 74 | 258 | 7.0 | 12.0 | 0.00 | 0.00 | 0.00 | 55 | 1016.9 |
| 20260903000038 | 75 | 218 | 6.0 | 15.0 | 0.00 | 0.00 | 0.00 | 54 | 1017.0 |
| 20260902235530 | 75 | 221 | 7.0 | 15.0 | 0.00 | 0.00 | 0.00 | 54 | 1017.1 |
| 20260902235028 | 75 | 251 | 9.0 | 15.0 | 0.00 | 0.00 | 0.00 | 53 | 1017.1 |
| 20260902234527 | 75 | 175 | 7.0 | 11.0 | 0.00 | 0.00 | 0.00 | 54 | 1017.1 |
| 20260902234030 | 74 | 215 | 5.0 | 9.0 | 0.00 | 0.00 | 0.00 | 53 | 1017.1 |
| 20260902233527 | 74 | 234 | 5.0 | 12.0 | 0.00 | 0.00 | 0.00 | 54 | 1017.1 |
| 20260902233028 | 75 | 176 | 9.0 | 12.0 | 0.00 | 0.00 | 0.00 | 52 | 1017.1 |
| 20260902232529 | 75 | 218 | 5.0 | 11.0 | 0.00 | 0.00 | 0.00 | 53 | 1017.1 |
| 20260902232025 | 75 | 183 | 7.0 | 11.0 | 0.00 | 0.00 | 0.00 | 54 | 1017.2 |
| 20260902231528 | 74 | 185 | 7.0 | 12.0 | 0.00 | 0.00 | 0.00 | 54 | 1017.2 |
| 20260902231024 | 74 | 188 | 9.0 | 12.0 | 0.00 | 0.00 | 0.00 | 54 | 1017.3 |
| 20260902230523 | 74 | 175 | 7.0 | 13.0 | 0.00 | 0.00 | 0.00 | 53 | 1017.3 |
| 20260902230023 | 75 | 242 | 6.0 | 10.0 | 0.00 | 0.00 | 0.00 | 54 | 1017.4 |
| 20260902225521 | 74 | 211 | 5.0 | 10.0 | 0.00 | 0.00 | 0.00 | 56 | 1017.5 |
| 20260902225023 | 73 | 217 | 7.0 | 11.0 | 0.00 | 0.00 | 0.00 | 55 | 1017.6 |
| 20260902224519 | 73 | 211 | 7.0 | 10.0 | 0.00 | 0.00 | 0.00 | 55 | 1017.6 |
| 20260902224020 | 73 | 232 | 5.0 | 9.0 | 0.00 | 0.00 | 0.00 | 55 | 1017.7 |
| 20260902223518 | 73 | 198 | 5.0 | 10.0 | 0.00 | 0.00 | 0.00 | 56 | 1017.6 |
| 20260902223018 | 73 | 229 | 4.0 | 11.0 | 0.00 | 0.00 | 0.00 | 56 | 1017.7 |
| 20260902222518 | 73 | 216 | 6.0 | 16.0 | 0.00 | 0.00 | 0.00 | 56 | 1017.6 |
| 20260902222020 | 73 | 216 | 7.0 | 12.0 | 0.00 | 0.00 | 0.00 | 56 | 1017.7 |
| 20260902221623 | 73 | 223 | 6.0 | 13.0 | 0.00 | 0.00 | 0.00 | 55 | 1017.8 |
| 20260902221020 | 73 | 188 | 7.0 | 14.0 | 0.00 | 0.00 | 0.00 | 56 | 1017.8 |
| 20260902220516 | 73 | 194 | 7.0 | 13.0 | 0.00 | 0.00 | 0.00 | 56 | 1017.8 |
| 20260902220015 | 73 | 207 | 4.0 | 10.0 | 0.00 | 0.00 | 0.00 | 57 | 1018.0 |
| 20260902215516 | 73 | 195 | 5.0 | 12.0 | 0.00 | 0.00 | 0.00 | 57 | 1017.9 |
| 20260902215016 | 73 | 175 | 8.0 | 12.0 | 0.00 | 0.00 | 0.00 | 58 | 1018.0 |
| 20260902214514 | 73 | 233 | 4.0 | 11.0 | 0.00 | 0.00 | 0.00 | 59 | 1018.2 |
| 20260902214014 | 73 | 202 | 6.0 | 11.0 | 0.00 | 0.00 | 0.00 | 59 | 1018.3 |
| 20260902213513 | 72 | 236 | 2.0 | 12.0 | 0.00 | 0.00 | 0.00 | 61 | 1018.3 |
| 20260902213018 | 72 | 265 | 6.0 | 14.0 | 0.00 | 0.00 | 0.00 | 60 | 1018.5 |
| 20260902212513 | 72 | 229 | 7.0 | 13.0 | 0.00 | 0.00 | 0.00 | 60 | 1018.4 |
| 20260902212014 | 72 | 211 | 3.0 | 11.0 | 0.00 | 0.00 | 0.00 | 60 | 1018.4 |
| 20260902211512 | 72 | 202 | 6.0 | 16.0 | 0.00 | 0.00 | 0.00 | 60 | 1018.5 |
| 20260902211012 | 72 | 205 | 11.0 | 16.0 | 0.00 | 0.00 | 0.00 | 59 | 1018.4 |
| 20260902210513 | 73 | 193 | 7.0 | 10.0 | 0.00 | 0.00 | 0.00 | 58 | 1018.5 |
| 20260902210013 | 73 | 360 | 4.0 | 7.0 | 0.00 | 0.00 | 0.00 | 59 | 1018.4 |
| 20260902205510 | 72 | 360 | 2.0 | 5.0 | 0.00 | 0.00 | 0.00 | 60 | 1018.5 |
| 20260902205009 | 71 | 360 | 1.0 | 3.0 | 0.00 | 0.00 | 0.00 | 61 | 1018.5 |
| 20260902204510 | 71 | 360 | 1.0 | 3.0 | 0.00 | 0.00 | 0.00 | 62 | 1018.6 |
| 20260902204006 | 70 | 251 | 0.0 | 6.0 | 0.00 | 0.00 | 0.00 | 62 | 1018.7 |
| 20260902203506 | 70 | 248 | 3.0 | 7.0 | 0.00 | 0.00 | 0.00 | 63 | 1018.6 |
| 20260902203007 | 70 | 360 | 0.0 | 4.0 | 0.00 | 0.00 | 0.00 | 63 | 1018.8 |
| 20260902202506 | 70 | 189 | 1.0 | 6.0 | 0.00 | 0.00 | 0.00 | 64 | 1018.7 |
| 20260902202007 | 70 | 200 | 3.0 | 9.0 | 0.00 | 0.00 | 0.00 | 63 | 1018.8 |
| 20260902201506 | 70 | 188 | 5.0 | 10.0 | 0.00 | 0.00 | 0.00 | 63 | 1018.8 |
| 20260902201009 | 70 | 215 | 4.0 | 8.0 | 0.00 | 0.00 | 0.00 | 64 | 1018.9 |
| 20260902200508 | 70 | 242 | 5.0 | 8.0 | 0.00 | 0.00 | 0.00 | 63 | 1019.0 |
| 20260902200004 | 70 | 228 | 1.0 | 9.0 | 0.00 | 0.00 | 0.00 | 63 | 1019.0 |
| 20260902195506 | 69 | 245 | 6.0 | 9.0 | 0.00 | 0.00 | 0.00 | 65 | 1019.0 |
| 20260902195002 | 69 | 264 | 4.0 | 9.0 | 0.00 | 0.00 | 0.00 | 64 | 1019.0 |
| 20260902194501 | 69 | 212 | 6.0 | 9.0 | 0.00 | 0.00 | 0.00 | 65 | 1019.0 |
| 20260902194100 | 69 | 239 | 3.0 | 10.0 | 0.00 | 0.00 | 0.00 | 67 | 1019.0 |
| 20260902193603 | 69 | 264 | 5.0 | 10.0 | 0.00 | 0.00 | 0.00 | 66 | 1019.0 |
| 20260902193100 | 68 | 360 | 4.0 | 8.0 | 0.00 | 0.00 | 0.00 | 66 | 1019.0 |
| 20260902192559 | 68 | 263 | 5.0 | 8.0 | 0.00 | 0.00 | 0.00 | 67 | 1019.2 |
| 20260902192059 | 68 | 263 | 5.0 | 9.0 | 0.00 | 0.00 | 0.00 | 67 | 1019.3 |
| 20260902191605 | 68 | 267 | 6.0 | 9.0 | 0.00 | 0.00 | 0.00 | 67 | 1019.3 |
| 20260902191058 | 68 | 360 | 5.0 | 7.0 | 0.00 | 0.00 | 0.00 | 66 | 1019.4 |
| 20260902190601 | 68 | 360 | 2.0 | 7.0 | 0.00 | 0.00 | 0.00 | 67 | 1019.5 |
| 20260902190058 | 68 | 360 | 3.0 | 8.0 | 0.00 | 0.00 | 0.00 | 67 | 1019.5 |
| 20260902185558 | 68 | 360 | 3.0 | 8.0 | 0.00 | 0.00 | 0.00 | 67 | 1019.6 |
| 20260902185100 | 68 | 186 | 3.0 | 8.0 | 0.00 | 0.00 | 0.00 | 67 | 1019.5 |
| 20260902184556 | 68 | 198 | 2.0 | 8.0 | 0.00 | 0.00 | 0.00 | 68 | 1019.5 |
| 20260902184055 | 68 | 360 | 6.0 | 8.0 | 0.00 | 0.00 | 0.00 | 68 | 1019.5 |
| 20260902183556 | 68 | 360 | 3.0 | 10.0 | 0.00 | 0.00 | 0.00 | 68 | 1019.5 |
| 20260902183135 | 68 | 360 | 5.0 | 10.0 | 0.00 | 0.00 | 0.00 | 68 | 1019.4 |
| 20260902182559 | 68 | 360 | 5.0 | 9.0 | 0.00 | 0.00 | 0.00 | 68 | 1019.4 |
| 20260902182055 | 68 | 360 | 5.0 | 11.0 | 0.00 | 0.00 | 0.00 | 67 | 1019.4 |
| 20260902181604 | 67 | 360 | 7.0 | 11.0 | 0.00 | 0.00 | 0.00 | 67 | 1019.4 |
| 20260902181055 | 68 | 360 | 6.0 | 9.0 | 0.00 | 0.00 | 0.00 | 67 | 1019.4 |
| 20260902180654 | 68 | 360 | 1.0 | 11.0 | 0.00 | 0.00 | 0.00 | 68 | 1019.5 |
| 20260902180054 | 68 | 229 | 7.0 | 11.0 | 0.00 | 0.00 | 0.00 | 68 | 1019.4 |
| 20260902175554 | 68 | 215 | 3.0 | 10.0 | 0.00 | 0.00 | 0.00 | 68 | 1019.4 |
| 20260902175052 | 68 | 211 | 5.0 | 11.0 | 0.00 | 0.00 | 0.00 | 68 | 1019.4 |
| 20260902174550 | 68 | 212 | 5.0 | 12.0 | 0.00 | 0.00 | 0.00 | 68 | 1019.4 |
| 20260902174049 | 68 | 134 | 8.0 | 12.0 | 0.00 | 0.00 | 0.00 | 68 | 1019.4 |
| 20260902173548 | 67 | 152 | 4.0 | 8.0 | 0.00 | 0.00 | 0.00 | 67 | 1019.4 |
| 20260902173055 | 67 | 171 | 4.0 | 6.0 | 0.00 | 0.00 | 0.00 | 69 | 1019.5 |
| 20260902172545 | 66 | 360 | 3.0 | 8.0 | 0.00 | 0.00 | 0.00 | 69 | 1019.4 |
| 20260902172045 | 66 | 229 | 4.0 | 13.0 | 0.00 | 0.00 | 0.00 | 68 | 1019.5 |
| 20260902171544 | 66 | 360 | 7.0 | 13.0 | 0.00 | 0.00 | 0.00 | 70 | 1019.4 |
| 20260902171043 | 66 | 360 | 6.0 | 13.0 | 0.00 | 0.00 | 0.00 | 69 | 1019.3 |
| 20260902170543 | 66 | 360 | 8.0 | 13.0 | 0.00 | 0.00 | 0.00 | 69 | 1019.1 |
| 20260902170045 | 66 | 360 | 8.0 | 13.0 | 0.00 | 0.00 | 0.00 | 69 | 1019.1 |
| 20260902165543 | 66 | 360 | 3.0 | 10.0 | 0.00 | 0.00 | 0.00 | 69 | 1019.2 |
| 20260902165042 | 66 | 360 | 7.0 | 12.0 | 0.00 | 0.00 | 0.00 | 68 | 1019.1 |
| 20260902164555 | 66 | 360 | 7.0 | 13.0 | 0.00 | 0.00 | 0.00 | 69 | 1019.2 |
| 20260902164041 | 66 | 360 | 8.0 | 13.0 | 0.00 | 0.00 | 0.00 | 69 | 1019.1 |
| 20260902163541 | 65 | 360 | 6.0 | 12.0 | 0.00 | 0.00 | 0.00 | 68 | 1018.9 |
| 20260902163041 | 65 | 360 | 7.0 | 14.0 | 0.00 | 0.00 | 0.00 | 68 | 1018.8 |
| 20260902162540 | 66 | 200 | 7.0 | 11.0 | 0.00 | 0.00 | 0.00 | 66 | 1018.7 |
| 20260902162039 | 65 | 178 | 6.0 | 13.0 | 0.00 | 0.00 | 0.00 | 67 | 1018.7 |
| 20260902161539 | 65 | 176 | 7.0 | 13.0 | 0.00 | 0.00 | 0.00 | 68 | 1018.9 |
| 20260902161038 | 65 | 184 | 5.0 | 11.0 | 0.00 | 0.00 | 0.00 | 69 | 1018.9 |
| 20260902160536 | 64 | 202 | 7.0 | 12.0 | 0.00 | 0.00 | 0.00 | 68 | 1018.9 |
| 20260902160045 | 64 | 161 | 8.0 | 12.0 | 0.00 | 0.00 | 0.00 | 68 | 1019.0 |
| 20260902155535 | 64 | 155 | 5.0 | 10.0 | 0.00 | 0.00 | 0.00 | 69 | 1019.1 |
| 20260902155034 | 63 | 180 | 6.0 | 9.0 | 0.00 | 0.00 | 0.00 | 69 | 1019.1 |
| 20260902154546 | 63 | 360 | 5.0 | 9.0 | 0.00 | 0.00 | 0.00 | 70 | 1019.0 |
| 20260902154036 | 63 | 360 | 4.0 | 8.0 | 0.00 | 0.00 | 0.00 | 70 | 1019.1 |
| 20260902153531 | 62 | 157 | 3.0 | 8.0 | 0.00 | 0.00 | 0.00 | 71 | 1019.1 |
| 20260902153029 | 62 | 160 | 5.0 | 8.0 | 0.00 | 0.00 | 0.00 | 71 | 1019.0 |
| 20260902152528 | 61 | 148 | 3.0 | 6.0 | 0.00 | 0.00 | 0.00 | 73 | 1019.0 |
| 20260902152029 | 60 | 121 | 1.0 | 6.0 | 0.00 | 0.00 | 0.00 | 74 | 1018.8 |
| 20260902151532 | 60 | 140 | 0.0 | 1.0 | 0.00 | 0.00 | 0.00 | 74 | 1018.8 |
| 20260902151024 | 60 | 140 | 0.0 | 1.0 | 0.00 | 0.00 | 0.00 | 74 | 1018.8 |
| 20260902150524 | 60 | 136 | 0.0 | 1.0 | 0.00 | 0.00 | 0.00 | 75 | 1018.9 |
| 20260902150025 | 60 | 135 | 0.0 | 1.0 | 0.00 | 0.00 | 0.00 | 75 | 1018.9 |
| 20260902145525 | 60 | 135 | 0.0 | 2.0 | 0.00 | 0.00 | 0.00 | 75 | 1018.8 |
| 20260902145026 | 59 | 165 | 0.0 | 2.0 | 0.00 | 0.00 | 0.00 | 75 | 1018.8 |
| 20260902144522 | 59 | 157 | 0.0 | 4.0 | 0.00 | 0.00 | 0.00 | 76 | 1018.8 |
| 20260902144022 | 59 | 140 | 0.0 | 5.0 | 0.00 | 0.00 | 0.00 | 76 | 1018.7 |
| 20260902143522 | 59 | 121 | 2.0 | 5.0 | 0.00 | 0.00 | 0.00 | 76 | 1018.7 |
| 20260902143024 | 59 | 120 | 0.0 | 2.0 | 0.00 | 0.00 | 0.00 | 76 | 1018.7 |
| 20260902142522 | 59 | 114 | 1.0 | 2.0 | 0.00 | 0.00 | 0.00 | 76 | 1018.5 |
| 20260902142022 | 59 | 115 | 0.0 | 2.0 | 0.00 | 0.00 | 0.00 | 77 | 1018.6 |
| 20260902141528 | 59 | 114 | 0.0 | 2.0 | 0.00 | 0.00 | 0.00 | 77 | 1018.7 |
| 20260902141023 | 58 | 121 | 0.0 | 2.0 | 0.00 | 0.00 | 0.00 | 77 | 1018.7 |
| 20260902140521 | 58 | 122 | 0.0 | 4.0 | 0.00 | 0.00 | 0.00 | 77 | 1018.7 |
| 20260902140121 | 58 | 123 | 1.0 | 5.0 | 0.00 | 0.00 | 0.00 | 77 | 1018.7 |
| 20260902135521 | 58 | 124 | 2.0 | 5.0 | 0.00 | 0.00 | 0.00 | 77 | 1018.6 |
| 20260902135020 | 58 | 109 | 1.0 | 3.0 | 0.00 | 0.00 | 0.00 | 78 | 1018.6 |
| 20260902134522 | 58 | 112 | 1.0 | 4.0 | 0.00 | 0.00 | 0.00 | 78 | 1018.6 |
| 20260902134019 | 58 | 103 | 1.0 | 4.0 | 0.00 | 0.00 | 0.00 | 78 | 1018.5 |
| 20260902133520 | 58 | 103 | 0.0 | 4.0 | 0.00 | 0.00 | 0.00 | 78 | 1018.5 |
| 20260902133019 | 58 | 103 | 1.0 | 4.0 | 0.00 | 0.00 | 0.00 | 78 | 1018.4 |
| 20260902132520 | 58 | 104 | 1.0 | 5.0 | 0.00 | 0.00 | 0.00 | 78 | 1018.3 |
| 20260902132018 | 58 | 106 | 2.0 | 5.0 | 0.00 | 0.00 | 0.00 | 78 | 1018.2 |
| 20260902131518 | 58 | 107 | 2.0 | 5.0 | 0.00 | 0.00 | 0.00 | 78 | 1018.2 |
| 20260902131019 | 58 | 109 | 2.0 | 5.0 | 0.00 | 0.00 | 0.00 | 78 | 1018.2 |
| 20260902130518 | 58 | 101 | 2.0 | 5.0 | 0.00 | 0.00 | 0.00 | 79 | 1018.1 |
| 20260902130029 | 58 | 119 | 1.0 | 4.0 | 0.00 | 0.00 | 0.00 | 79 | 1018.2 |
| 20260902125518 | 58 | 136 | 0.0 | 4.0 | 0.00 | 0.00 | 0.00 | 79 | 1018.2 |